Regional Weather Roundup
Issued by NWS

Home | Current Version | Previous Version | Graphics & Text | Print | Product List | Glossary On
Versions: 1 2 3 4 5 6 7 8 9 10 11 12 13 14 15 16 17 18 19 20 21 22 23 24 25 26 27 28 29 30 31 32 33 34 35 36 37 38 39 40 41 42 43 44 45 46 47 48 49 50
000
ASUS43 KOAX 170202
RWRNE

WEATHER ROUNDUP FOR NEBRASKA
NATIONAL WEATHER SERVICE OMAHA NE
900 PM CDT TUE SEP 16 2014

NOTES: SATELLITE DATA IS BEING USED TO AUGMENT CLOUD COVER ABOVE
       12000 FEET.
       "FAIR" INDICATES FEW OR NO CLOUDS BELOW 12,000 FEET WITH NO
       SIGNIFICANT WEATHER AND/OR OBSTRUCTIONS TO VISIBILITY.

  * THESE STATIONS DO NOT REPORT WEATHER SUCH AS RAIN...SNOW OR FOG.

NEZ001>004-019>022-054>056-170300-
NEBRASKA PANHANDLE

CITY           SKY/WX    TMP DP  RH WIND       PRES   REMARKS
SCOTTSBLUFF    PTCLDY    64  50  60 E7        29.98S
ALLIANCE       CLEAR     57  45  64 S5        29.98S
CHADRON        CLEAR     64  50  60 CALM      29.93R
KIMBALL        CLEAR     65  37  36 SE7       30.05R
SIDNEY         CLEAR     66  44  45 SE9       30.04S
$$

NEZ057>060-069>072-079>082-170300-
SOUTHWEST NEBRASKA

CITY           SKY/WX    TMP DP  RH WIND       PRES   REMARKS
NORTH PLATTE   CLEAR     59  56  89 E7        29.98R
IMPERIAL       CLEAR     65  53  65 E3        30.00R
LEXINGTON      CLEAR     61  57  88 SE7       29.99R
MCCOOK         CLEAR     67  59  75 E7        29.97R
OGALLALA       CLEAR     61  56  84 CALM      29.98S
$$

NEZ005>010-023>029-035>040-094-170300-
NORTH CENTRAL NEBRASKA

CITY           SKY/WX    TMP DP  RH WIND       PRES   REMARKS
VALENTINE      CLEAR     60  54  80 CALM      29.94R
BROKEN BOW     CLEAR     59  56  89 SE3       29.99R
O`NEILL        CLEAR     61  57  88 S8        29.97S
ORD            CLEAR     60  55  83 SE7       29.97S
THEDFORD       CLEAR     68  59  74 S9        29.96S
$$

NEZ041-046>049-061>064-073>077-083>087-170300-
SOUTH CENTRAL NEBRASKA

CITY           SKY/WX    TMP DP  RH WIND       PRES   REMARKS
GRAND ISLAND   CLEAR     61  54  77 SE8       30.00F
HASTINGS       CLEAR     60  51  72 SE7       30.01S
HEBRON         PTCLDY    61  53  75 CALM      30.01F
HOLDREGE       CLEAR     58  55  88 SE8       29.99R
KEARNEY *      CLEAR     57  54  88 E7        30.00S
YORK           CLOUDY    63  55  77 S6        30.01F
$$

NEZ011>018-030>034-042>045-170300-
NORTHEAST NEBRASKA

CITY           SKY/WX    TMP DP  RH WIND       PRES   REMARKS
NORFOLK        CLOUDY    64  51  62 SE10      29.99F
ALBION         PTCLDY    58  53  82 CALM      29.99S
COLUMBUS *     CLOUDY    63  52  67 SE6       30.01F
TEKAMAH        CLOUDY    61  52  72 SE6       30.02R
WAYNE          CLOUDY    61  51  69 S8        30.00S
$$

NEZ050>053-065>068-078-088>093-170300-
SOUTHEAST NEBRASKA

CITY           SKY/WX    TMP DP  RH WIND       PRES   REMARKS
LINCOLN        CLOUDY    67  51  56 SE9       30.02S
OMAHA EPPLEY   CLOUDY    64  50  60 SE7       30.03R
BEATRICE       CLOUDY    65  52  61 SE5       30.01F
FALLS CITY     CLOUDY    64  54  69 SE5       30.03R
NEBRASKA CITY  CLOUDY    63  46  52 SE5       30.04R
PLATTSMOUTH    CLOUDY    63  49  60 SE3       30.04R
$$

NEZ044-045-051>053-067-170300-
OMAHA AREA

CITY           SKY/WX    TMP DP  RH WIND       PRES   REMARKS
OMAHA EPPLEY   CLOUDY    64  50  60 SE7       30.03R
MILLARD        CLOUDY    64  52  65 SE5       30.02S
OFFUTT AFB     CLOUDY    63  55  77 SE7       30.03R
PLATTSMOUTH    CLOUDY    63  49  60 SE3       30.04R
WAHOO          CLOUDY    63  51  67 SE7       30.01S
$$



USA.gov is the U.S. government's official web portal to all federal, state and local government web resources and services.